Dewpoint
63 62 59 58 58 57 49 42 26 32 32 28 30 29 27 28 28 17 16 16 13 19 28 31 34 34 26 28 28 33 36 31 32 28 29 39 51 55 57 60 60 60 60 60 61 62 63 65 66 66 66 66 67 67 67 68 68 68 68 69 69 69 69 69 69 70 69 69 69 69 68 68 68 68 68 68 68 68 68 68 68 68 68 69 69 70 69 70 70 70 70 69 69 69 69 69 69
61 57 56 57 54 50 45 42 34 33 32 29 29 29 28 28 18 18 15 16 17 23 29 30 33 31 32 35 37 32 34 40 40 39 45 49 51 52 56 60 60 59 59 60 60 60 61 63 65 65 65 66 66 66 66 66 66 67 68 68 67 68 68 67 68 69 69 68 68 68 67 67 67 67 67 67 67 67 67 67 67 67 67 68 68 69 69 69 69 69 68 67 67 66 66 67 68
61 56 56 55 53 51 48 40 30 29 26 23 26 27 27 17 20 22 21 18 22 27 28 28 29 30 28 28 28 25 26 42 43 45 46 50 51 51 52 59 59 59 59 59 59 59 60 62 64 64 65 65 65 65 65 66 67 67 67 67 67 67 67 67 68 68 67 67 67 67 66 66 66 66 66 66 66 65 65 65 65 66 66 66 67 68 69 68 68 68 67 66 64 64 63 63 64
56 58 55 53 46 46 39 37 34 29 25 26 27 28 27 22 25 29 28 25 27 28 28 22 22 26 25 25 23 35 37 39 42 45 47 49 51 53 51 57 59 58 58 58 58 59 59 63 64 63 64 64 64 64 64 65 66 66 66 66 66 66 66 66 66 66 66 66 66 66 65 65 65 65 65 65 64 64 63 63 63 63 64 64 65 66 66 65 65 65 64 63 62 61 62 62 62
53 57 56 52 46 39 37 35 33 30 28 30 22 25 33 29 27 30 27 27 27 26 27 25 26 29 29 27 30 26 27 41 42 46 46 49 49 51 51 56 58 57 57 57 57 58 58 62 63 64 63 63 63 63 63 64 65 65 65 65 65 65 65 65 65 65 64 64 64 64 64 64 64 64 63 62 62 61 61 61 61 61 61 62 62 62 63 63 62 62 62 61 61 61 60 60 60
54 53 53 50 41 45 40 33 31 31 32 29 28 30 27 25 29 28 26 27 27 28 26 23 18 25 30 28 31 29 38 38 41 45 47 48 48 50 52 57 57 56 56 56 57 57 57 62 62 63 63 63 63 63 63 64 64 64 64 65 65 64 64 64 64 64 64 63 62 62 62 62 63 62 61 60 60 60 59 60 60 60 60 61 62 62 62 61 61 61 60 59 59 58 59 58 58
48 48 46 40 40 41 35 33 33 33 31 33 31 29 26 26 29 27 26 25 26 23 27 22 27 23 22 27 30 38 44 43 42 42 47 48 50 50 53 55 56 55 55 55 55 56 57 62 62 62 62 63 63 63 63 64 64 63 64 64 64 64 64 64 64 63 63 61 61 61 61 61 61 60 59 59 60 59 59 59 59 60 59 59 60 60 60 60 59 59 59 58 58 57 57 57 57
53 43 43 32 33 31 27 29 29 33 27 32 30 24 21 28 28 26 25 23 21 21 24 27 28 20 19 30 26 30 43 46 46 46 47 48 50 50 51 54 54 54 54 54 54 55 59 61 61 62 62 62 63 63 63 63 63 63 63 63 63 63 63 63 63 62 62 61 61 61 60 60 59 59 59 59 59 59 59 58 58 58 57 58 58 58 58 58 58 58 58 57 57 57 57 56 57
46 42 44 33 25 31 29 29 30 29 27 27 24 33 38 29 27 25 25 24 25 25 24 26 27 18 18 29 28 33 39 45 44 48 48 49 50 50 50 53 53 53 53 53 54 55 56 61 61 61 61 62 62 63 63 62 62 62 63 63 63 62 62 62 62 61 60 59 59 59 59 59 59 59 59 58 58 58 57 57 57 57 56 57 57 57 57 57 57 57 57 57 57 56 56 56 57
41 39 30 32 32 24 30 28 26 27 30 31 28 24 30 28 26 26 24 24 23 24 25 27 24 18 22 26 29 33 36 44 47 48 48 49 49 48 49 53 53 52 51 52 53 54 54 59 60 60 60 61 61 61 62 61 61 61 61 61 61 61 60 60 60 59 58 58 58 59 59 59 59 59 59 58 57 56 56 56 56 55 56 56 55 55 55 55 56 57 56 57 56 56 56 56 57
37 41 41 31 29 28 28 26 29 29 29 29 24 21 28 27 26 24 23 23 26 21 25 27 24 24 25 25 31 37 43 43 46 46 48 49 48 44 48 52 52 51 51 51 51 52 54 55 59 59 59 59 60 60 60 60 60 60 59 59 59 59 59 58 58 58 58 58 58 58 58 58 58 57 57 57 56 55 54 54 54 54 55 55 55 55 54 55 55 56 56 56 55 55 54 55 54
35 37 35 29 26 26 26 28 29 28 29 30 21 21 22 26 25 21 21 21 24 25 22 29 24 25 23 25 28 35 43 41 44 46 47 47 44 43 49 51 51 50 50 50 51 51 52 53 55 58 59 59 59 59 59 58 58 58 58 58 58 57 57 57 57 58 58 57 57 57 56 56 56 55 55 55 55 55 53 53 54 54 55 55 55 54 55 55 55 54 54 53 52 53 52 53 52
37 37 33 29 28 26 30 29 29 33 31 27 23 20 22 22 20 20 21 22 24 24 23 25 27 24 23 26 33 38 40 40 41 43 45 42 38 42 49 50 50 50 50 50 50 50 51 52 53 54 56 57 57 58 57 57 57 56 56 56 57 57 56 57 57 57 57 57 57 56 53 52 52 51 51 53 54 54 53 53 53 54 54 54 54 54 54 54 54 54 53 51 50 51 51 51 51
34 36 34 29 31 29 27 28 28 22 21 27 23 23 22 21 21 21 21 22 23 23 25 26 26 25 23 25 26 36 39 40 40 41 40 35 35 41 47 49 49 49 49 49 50 50 50 51 52 51 53 53 52 55 57 56 56 56 56 55 55 55 56 56 56 56 56 56 55 54 52 51 50 49 49 50 53 54 52 52 52 53 54 53 53 53 53 53 52 52 51 50 50 49 49 49 49
35 40 33 30 27 21 26 20 22 23 21 26 23 21 21 24 23 23 19 24 20 26 27 26 29 23 21 22 22 32 37 39 39 39 35 33 34 38 44 47 49 49 49 49 49 49 50 50 50 50 50 49 50 50 50 54 56 55 55 55 54 55 55 55 55 54 53 53 52 52 51 51 50 49 48 48 49 50 50 50 50 52 52 52 52 52 51 51 50 50 50 49 48 48 48 48 48
40 38 31 28 26 22 24 23 28 24 24 27 24 22 21 21 23 21 22 20 26 30 26 24 27 23 24 23 27 26 37 39 39 35 32 32 36 39 41 44 46 48 48 48 48 49 49 49 49 49 48 48 47 47 48 49 54 55 55 54 54 54 54 53 53 51 50 50 49 49 49 48 48 46 46 44 46 48 48 48 48 50 50 50 50 50 50 50 49 49 48 48 46 46 46 46 46
43 36 24 28 24 24 24 24 22 20 25 29 27 21 19 19 21 23 23 24 23 23 26 26 25 27 23 22 30 37 38 39 38 31 30 30 32 34 37 38 41 44 46 47 48 47 47 48 48 47 47 46 46 46 46 47 50 53 53 53 53 52 52 51 51 50 51 50 49 49 45 39 40 40 41 42 45 45 45 49 46 48 48 48 48 49 49 48 48 47 46 46 45 44 44 44 44
38 29 26 22 27 25 29 25 25 24 23 21 22 20 19 18 19 22 21 21 22 22 26 26 26 25 31 34 38 38 38 36 32 30 29 30 31 31 33 34 36 41 43 44 46 46 46 47 47 46 45 45 45 46 46 46 48 50 47 48 48 49 50 50 47 43 48 44 47 44 39 39 36 37 41 46 44 45 44 46 45 45 46 45 47 47 47 47 47 46 45 44 44 44 41 36 38
35 33 25 21 26 26 32 29 27 18 19 21 21 21 19 18 21 21 19 19 20 19 20 23 24 24 31 33 36 36 36 34 31 30 29 30 30 29 31 33 33 35 39 41 43 44 45 45 46 44 44 43 44 44 45 45 46 44 44 44 44 46 45 43 40 43 40 40 43 42 42 37 35 38 39 41 45 47 45 44 43 43 43 42 43 45 45 45 46 46 44 43 42 41 35 35 35
37 32 28 30 29 26 30 27 26 19 19 19 20 21 18 19 20 22 20 18 20 19 18 20 21 21 24 33 35 35 34 33 32 30 29 29 29 29 29 30 31 32 35 38 40 42 42 43 44 42 42 42 43 43 44 44 43 42 42 41 41 40 42 41 40 41 40 39 40 40 39 37 37 37 46 46 44 39 41 45 42 42 42 41 39 39 41 43 42 43 43 41 40 38 34 34 35
34 30 28 28 28 28 26 26 26 22 20 19 19 21 19 19 20 20 19 18 18 18 19 18 18 19 21 32 34 34 34 33 31 30 29 29 29 29 30 29 30 30 32 35 37 37 39 40 41 39 40 39 40 41 42 42 39 39 38 39 38 38 40 39 39 39 38 37 37 37 37 38 37 37 37 35 34 34 33 33 33 34 34 36 39 33 33 34 35 34 34 36 33 34 34 33 34
34 31 31 29 27 25 24 25 25 21 22 20 22 19 18 20 20 19 19 17 16 16 19 20 19 19 21 31 32 33 33 32 31 30 29 28 28 27 28 29 29 29 30 31 33 34 37 36 38 37 39 37 37 37 39 39 37 35 35 35 36 36 38 37 38 37 37 36 36 36 37 35 34 34 33 33 33 33 33 33 33 33 32 33 38 32 32 32 32 32 33 33 33 33 33 33 34
28 29 29 28 27 25 26 26 24 22 20 19 21 19 19 20 19 20 19 18 18 19 20 20 20 20 20 28 32 32 32 32 31 30 29 28 28 28 27 28 28 28 29 30 31 32 34 35 35 36 38 37 35 33 33 35 34 32 32 34 35 35 37 36 36 36 36 34 34 37 35 33 33 33 33 33 33 33 32 32 32 32 31 31 35 31 32 32 32 32 32 33 33 33 33 33 33
30 28 27 27 27 26 26 26 25 22 21 20 20 21 19 19 17 19 19 19 19 19 21 20 20 20 23 28 31 31 32 31 31 30 29 29 28 28 28 28 28 28 28 28 29 30 34 33 34 35 37 37 36 32 30 33 34 34 33 37 36 37 37 36 35 35 35 33 34 36 35 33 32 32 32 32 33 32 32 32 32 32 31 31 33 33 31 31 32 32 32 32 32 33 32 31 33
31 30 31 29 27 26 25 23 21 22 22 21 23 20 18 19 18 20 18 18 19 19 21 21 22 24 22 25 29 31 31 32 31 30 30 30 30 31 32 30 29 29 27 28 28 28 31 33 33 34 36 37 36 34 28 34 35 35 34 35 35 39 36 35 35 35 34 33 34 36 35 32 32 32 32 32 32 31 32 31 31 31 31 31 32 31 32 31 31 32 32 31 32 31 30 30 33
29 28 28 23 22 21 20 20 20 19 20 21 20 19 19 19 22 19 19 19 19 20 20 20 20 24 22 23 26 29 30 31 32 30 29 30 30 29 30 30 29 28 28 27 28 27 28 31 31 32 34 36 36 35 29 33 36 35 33 34 34 39 35 35 35 34 32 32 33 35 33 31 31 31 32 32 30 31 31 31 31 30 29 30 31 30 33 32 31 31 31 31 31 30 29 30 30
25 25 23 21 21 20 21 20 20 21 21 21 19 19 19 21 20 17 19 19 19 20 19 20 20 20 20 22 24 27 28 29 30 30 30 30 30 30 30 31 30 28 29 27 27 27 29 30 31 32 32 37 36 35 32 31 35 34 34 34 34 37 35 35 34 32 32 31 31 33 33 32 31 31 31 31 30 30 30 30 30 30 29 30 31 30 33 33 32 30 31 31 30 29 29 30 31
22 21 21 21 21 22 21 20 20 21 20 20 19 19 20 20 22 18 18 19 19 19 19 19 21 20 20 20 21 26 28 28 29 30 30 30 29 30 30 30 30 29 28 28 27 28 27 28 29 30 31 34 35 34 34 31 33 33 33 35 34 36 35 34 33 31 33 31 32 32 32 32 32 31 31 31 30 29 29 29 30 29 28 30 31 31 32 32 31 31 32 32 31 30 29 29 31
22 21 19 19 20 18 18 18 18 20 18 20 20 19 18 21 18 19 19 19 20 20 19 19 20 20 21 21 21 22 25 26 28 28 29 29 29 29 29 30 31 30 28 28 28 29 26 27 28 29 30 33 33 32 32 31 32 33 33 34 34 36 34 33 31 30 31 31 32 31 31 32 32 31 30 31 33 29 29 30 30 30 28 28 31 32 31 30 30 29 31 31 31 29 29 29 32
22 21 20 18 17 17 16 19 19 19 18 20 19 15 15 16 19 19 19 20 20 19 19 19 20 20 20 21 21 22 22 25 26 28 27 28 28 28 29 29 31 31 29 28 27 27 27 29 30 30 30 31 32 30 30 30 32 32 33 33 34 34 32 32 31 30 31 31 31 31 31 32 31 30 30 31 30 29 29 29 29 29 28 29 31 31 29 30 29 29 30 28 32 30 28 29 28
18 20 19 18 17 16 16 17 19 18 21 20 18 18 15 16 17 18 19 20 19 18 18 18 19 19 19 21 22 22 22 22 24 25 28 29 28 28 28 28 30 31 31 27 27 27 28 28 29 28 32 30 33 30 31 29 31 32 32 31 33 33 32 31 31 31 31 31 30 30 32 32 31 30 30 30 29 29 29 29 29 28 29 29 28 31 28 30 28 29 30 27 28 29 29 31 28
21 17 18 23 17 16 15 19 18 15 18 20 18 18 16 16 16 17 18 18 19 18 18 18 18 18 17 19 19 20 21 22 23 24 25 27 28 28 28 28 28 30 30 28 27 27 26 26 30 28 30 30 32 30 30 30 31 32 31 33 32 32 31 30 31 31 31 31 30 30 31 32 31 30 30 29 29 29 28 28 28 29 30 28 29 30 30 28 29 29 30 29 27 28 28 25 26
25 17 19 18 20 18 17 16 21 18 19 19 17 15 17 16 17 18 18 17 17 16 16 16 16 16 16 16 17 18 19 20 23 23 24 25 27 28 28 28 28 29 29 28 27 27 26 26 30 28 29 29 31 30 30 30 31 31 30 31 32 32 31 30 31 31 31 30 29 29 31 32 30 30 30 29 28 28 27 27 28 29 29 27 28 29 29 31 29 29 30 32 28 27 26 25 25
19 21 18 21 17 16 15 18 19 23 18 17 17 16 16 16 17 17 17 17 15 15 15 15 15 15 15 16 17 17 18 19 19 20 22 24 24 26 27 31 28 28 29 29 27 26 25 26 28 28 29 29 30 30 30 30 31 31 30 31 33 31 30 30 31 31 30 30 29 29 31 32 30 30 30 29 28 27 27 28 28 28 28 28 28 27 26 30 29 28 28 30 28 26 25 25 25
13 18 19 18 19 17 15 16 17 18 18 17 17 17 16 17 17 18 18 17 15 15 15 15 15 15 16 16 17 17 17 18 18 19 21 22 24 25 26 28 29 28 28 28 27 26 26 26 28 29 29 29 30 29 30 30 31 30 30 31 31 30 30 30 31 31 31 30 29 30 31 31 31 30 29 29 27 28 27 28 28 28 28 28 27 27 27 30 30 29 27 27 29 27 26 27 27
12 14 15 21 17 15 16 17 18 18 16 16 17 16 16 17 17 17 18 18 17 17 17 16 16 16 16 16 17 17 18 17 19 21 23 25 26 25 26 28 29 29 27 27 27 26 25 25 27 28 29 28 28 29 30 30 30 30 29 30 30 30 29 30 30 30 30 30 30 30 31 30 30 30 29 29 28 28 27 27 27 29 28 27 27 26 26 27 28 27 27 26 26 28 29 28 28
16 20 20 16 15 14 15 14 15 18 17 16 16 16 16 16 16 17 17 17 17 17 17 17 17 17 17 17 17 17 17 17 23 25 25 25 27 26 27 28 29 29 27 26 26 26 25 25 27 27 28 27 27 28 29 28 28 29 29 29 28 29 28 29 30 30 30 29 30 30 31 30 30 30 29 28 27 29 27 27 27 28 28 27 27 26 26 26 27 26 29 29 27 26 27 28 27
18 19 19 16 19 15 15 15 15 18 17 16 16 16 17 16 16 16 17 16 16 16 16 16 16 17 18 18 18 18 18 22 25 25 25 27 26 29 28 28 30 28 27 26 26 25 25 25 25 26 27 26 27 27 28 28 28 28 27 27 27 28 28 29 28 28 29 31 30 30 31 30 30 29 29 28 27 27 26 27 27 27 27 27 27 28 27 31 29 27 27 27 28 27 26 27 27
21 19 19 20 19 20 19 19 19 19 19 17 17 16 16 16 16 17 16 16 16 16 16 16 16 16 18 18 18 18 19 20 19 19 22 25 29 29 28 28 29 28 27 26 26 25 24 24 25 26 26 26 27 27 28 27 27 28 27 27 27 27 28 28 28 28 30 30 30 30 30 30 30 29 29 28 27 26 26 26 26 26 26 28 27 27 28 28 27 26 27 26 25 27 28 29 26
21 21 20 19 19 18 15 18 18 18 17 15 16 14 14 14 15 15 16 16 16 18 18 19 19 18 17 17 17 18 19 20 20 19 18 22 26 28 28 28 28 28 28 26 25 25 24 25 24 25 26 26 26 27 28 27 27 28 27 27 27 27 27 29 28 28 29 30 30 30 30 29 29 29 29 28 27 26 25 25 26 26 26 28 27 26 26 25 26 26 27 28 25 23 23 23 29
23 22 21 19 20 18 17 15 17 18 17 17 16 16 15 16 15 15 16 17 17 17 17 17 19 24 22 25 24 24 20 20 21 20 20 22 26 27 27 28 28 28 28 26 26 25 23 24 24 25 25 25 26 28 28 27 28 27 27 27 27 26 27 26 27 27 28 29 29 29 29 29 29 28 28 28 27 26 26 25 25 25 26 27 26 25 24 24 25 26 26 27 25 23 22 24 26
19 24 21 19 17 16 16 16 17 17 16 22 20 15 12 16 17 17 17 18 18 18 18 18 18 19 21 21 22 23 27 26 24 23 22 23 25 28 28 27 27 27 27 27 26 25 24 24 24 24 25 25 26 27 27 27 27 26 25 25 24 24 24 25 25 25 26 27 28 28 28 29 29 28 28 27 27 26 25 25 25 25 25 26 26 25 24 25 25 25 25 26 25 24 23 24 23
17 17 22 19 17 18 18 18 19 18 16 18 21 14 13 15 15 18 18 18 18 19 19 19 19 19 20 22 23 23 23 23 23 24 25 25 26 27 27 27 27 27 26 27 26 25 24 24 23 24 24 25 27 27 27 27 26 25 24 24 24 23 23 24 25 25 26 27 28 27 28 28 28 27 27 27 27 26 25 25 25 24 24 25 27 24 24 24 24 25 27 24 24 28 24 23 23
17 21 23 21 19 20 21 21 21 18 23 24 23 19 17 18 18 19 17 17 17 16 17 17 17 17 19 19 20 20 21 21 23 24 25 25 26 26 26 26 26 26 26 26 25 25 24 23 23 24 24 25 26 27 26 26 25 25 24 24 24 23 22 22 24 24 26 26 26 27 27 28 28 27 27 26 26 26 25 25 24 24 24 24 26 24 24 24 25 26 26 25 27 26 24 22 22
18 24 26 24 21 22 24 24 24 24 19 21 21 22 18 18 16 19 18 16 16 15 15 15 15 15 15 17 19 19 19 20 22 24 25 25 26 27 26 25 26 25 26 25 25 24 24 24 23 24 24 24 26 26 26 26 25 24 24 23 23 24 22 23 24 26 26 27 25 26 26 27 27 27 26 26 26 26 26 24 24 23 23 24 27 25 24 24 24 25 25 24 24 24 24 24 22
24 28 29 28 26 26 23 20 19 21 17 18 19 20 14 13 14 15 14 16 15 15 15 14 13 13 13 13 15 16 16 18 24 25 25 26 26 26 26 24 24 24 26 28 25 25 24 24 23 23 23 24 25 25 26 25 25 25 23 23 23 23 23 23 23 23 24 26 25 25 25 26 27 26 26 26 26 26 26 25 24 23 23 24 26 24 24 24 23 23 23 22 23 23 25 24 23
29 27 23 25 25 24 24 23 19 19 17 19 21 18 16 15 14 13 15 17 13 14 13 13 13 14 13 13 14 18 18 20 24 28 27 25 25 26 23 23 23 23 24 25 25 24 24 24 23 23 23 24 25 25 25 24 24 24 23 23 22 22 22 22 22 21 23 24 24 24 25 25 26 26 26 25 25 25 25 25 24 23 23 25 26 23 23 23 23 23 23 23 23 23 23 25 27
26 23 23 21 22 20 20 17 19 13 15 19 21 19 16 13 13 16 13 13 14 13 12 12 12 12 14 15 16 17 17 20 26 28 25 24 23 23 22 22 22 22 23 23 24 24 24 24 23 22 23 23 24 25 25 24 24 24 23 22 22 21 21 22 20 20 22 22 23 24 24 25 25 26 25 25 24 25 25 24 24 23 24 24 24 23 23 23 23 23 23 23 23 23 24 24 24
26 22 21 15 16 16 9 11 10 11 14 17 19 19 16 13 11 12 14 14 14 14 13 12 11 11 13 15 17 19 22 23 28 28 26 24 23 22 21 21 21 21 22 22 23 23 23 23 23 22 22 22 23 24 24 24 24 23 23 23 22 21 20 20 20 20 21 22 22 23 23 23 24 25 24 24 24 24 24 24 23 23 23 23 23 23 23 23 23 23 22 22 23 23 23 23 22
24 22 22 17 12 9 9 7 7 12 16 19 16 20 13 13 13 14 13 13 13 14 14 16 14 13 15 17 19 19 23 27 28 28 26 24 24 23 22 21 20 21 21 21 22 23 23 24 22 22 22 22 22 23 24 24 23 23 23 23 22 22 20 20 20 19 21 22 23 22 23 23 23 23 24 24 24 24 24 23 23 22 22 23 23 22 22 22 23 22 22 22 22 22 22 22 22
22 23 22 21 18 9 5 9 10 11 14 17 18 14 17 10 13 18 13 13 14 16 15 18 20 20 19 19 19 19 24 27 28 27 26 24 24 23 23 22 20 21 21 21 21 22 22 22 23 22 22 22 21 22 23 23 23 23 23 23 22 21 21 20 20 21 20 21 22 21 22 22 22 22 23 23 24 23 23 22 23 22 22 22 22 22 23 23 23 22 22 22 22 22 22 22 22
24 26 25 18 20 17 13 17 15 12 9 14 12 17 19 14 14 17 20 18 17 16 16 20 18 18 19 19 19 18 24 27 27 26 25 23 23 23 23 22 21 21 20 21 20 22 22 22 22 22 22 21 21 21 22 22 23 23 23 22 22 21 22 21 21 21 20 21 21 21 21 22 22 22 22 23 23 23 23 22 22 22 22 22 22 22 22 22 22 22 22 22 22 24 22 22 22
22 23 21 22 23 20 19 21 20 18 12 14 14 14 16 17 12 12 17 12 11 11 12 11 11 14 17 18 20 20 25 26 26 26 24 22 21 22 22 22 21 21 20 21 21 21 21 22 22 21 21 22 21 21 21 21 22 22 22 22 22 21 21 20 19 19 19 20 20 20 20 21 21 21 22 23 23 23 23 22 22 21 22 22 22 22 22 22 22 22 22 22 22 23 23 22 22
21 18 21 24 26 24 20 16 15 15 14 14 15 13 11 11 14 21 14 14 12 12 12 12 14 16 14 19 21 23 25 25 25 24 23 22 20 20 21 22 21 21 20 20 20 21 21 22 21 21 21 21 21 21 20 21 21 21 22 22 22 21 20 20 20 19 19 19 20 20 20 20 20 21 22 23 23 23 22 23 21 21 21 21 21 21 21 21 22 22 22 22 22 23 23 23 23
21 23 27 20 15 17 19 19 14 14 14 15 12 11 11 13 13 15 11 12 12 11 14 11 11 11 13 13 17 25 27 25 24 23 22 22 21 20 19 20 20 20 21 20 21 22 22 21 21 20 20 20 20 21 20 21 20 22 22 22 21 21 21 20 20 20 19 19 19 20 20 20 19 20 22 22 22 22 22 22 21 21 21 21 21 21 21 22 22 21 22 22 23 22 22 22 22
27 26 23 27 22 21 18 21 20 18 15 16 17 15 15 20 17 13 12 11 15 12 15 15 14 15 15 16 20 23 26 26 25 24 23 22 22 20 19 18 18 19 19 20 21 21 21 21 21 21 20 20 20 19 20 19 20 20 21 21 21 21 21 20 20 19 19 19 19 19 20 19 19 20 21 22 22 22 21 21 21 21 20 21 21 21 21 21 22 21 22 22 22 22 22 21 22
22 23 21 23 23 25 21 22 20 17 16 15 15 15 17 19 16 12 12 12 14 15 16 19 19 19 19 18 21 24 26 27 26 25 24 23 22 22 21 19 19 19 20 21 21 21 21 22 21 21 20 20 19 19 19 19 19 19 20 20 20 19 19 19 19 19 19 18 19 20 19 19 19 19 20 21 21 21 21 21 20 21 20 20 20 21 21 21 21 21 22 21 21 21 21 21 21
24 23 21 20 21 21 18 18 22 21 17 17 16 16 22 24 15 17 18 13 15 16 17 19 18 18 19 21 21 25 27 27 27 26 25 25 23 23 23 23 22 20 19 19 21 21 21 21 22 22 21 21 19 19 19 19 19 19 19 19 19 19 19 19 18 18 19 18 19 19 19 19 19 19 20 20 20 20 20 20 20 20 20 20 20 20 21 21 21 21 21 21 21 21 20 20 20